When you browse on this site, cookies collect data to enhance your experience and personalize the content and advertising you see.
Visit our Privacy Policy to learn more. By continuing to use the site, you agree to this use of cookies and data.
  • In Hungary
  • List of Countries
  • For 7 days
  • Water Temperature
  • Satellite Maps
  • Weather Map
  • News
  • Weather Widgets
  • user-avatar
    Login

    Hourly Weather Kolokol'nyy

    Today, 11 December, Tuesday

    Time Temperature Precipitation Wind Pressure Humidity
    00:00 -30°C° 0 mm 1 mps 716 mmHg 91%
    01:00 -30°C° 0 mm 1 mps 716 mmHg 91%
    02:00 -30°C° 0 mm 1 mps 716 mmHg 91%
    03:00 -30°C° 0 mm 1 mps 715 mmHg 91%
    04:00 -30°C° 0 mm 1 mps 715 mmHg 91%
    05:00 -30°C° 0 mm 1 mps 715 mmHg 91%
    06:00 -30°C° 0 mm 1 mps 714 mmHg 91%
    07:00 -30°C° 0 mm 1 mps 714 mmHg 91%
    08:00 -30°C° 0 mm 0 mps 714 mmHg 91%
    09:00 -29°C° 0 mm 1 mps 714 mmHg 89%
    10:00 -27°C° 0 mm 1 mps 714 mmHg 86%
    11:00 -24°C° 0 mm 1 mps 713 mmHg 84%
    12:00 -24°C° 0 mm 1 mps 713 mmHg 84%
    13:00 -23°C° 0 mm 1 mps 712 mmHg 85%
    14:00 -23°C° 0 mm 1 mps 712 mmHg 86%
    15:00 -24°C° 0 mm 1 mps 712 mmHg 88%
    16:00 -27°C° 0 mm 1 mps 711 mmHg 91%
    17:00 -28°C° 0 mm 1 mps 711 mmHg 94%
    18:00 -28°C° 0 mm 0 mps 711 mmHg 94%
    19:00 -28°C° 0 mm 0 mps 711 mmHg 93%
    20:00 -28°C° 0 mm 0 mps 711 mmHg 93%
    21:00 -28°C° 0 mm 0 mps 710 mmHg 93%
    22:00 -28°C° 0 mm 0 mps 710 mmHg 93%
    23:00 -29°C° 0 mm 0 mps 710 mmHg 92%

    Tomorrow, 12 December, Wednesday

    Time Temperature Precipitation Wind Pressure Humidity
    00:00 -29°C° 0 mm 0 mps 710 mmHg 92%
    01:00 -29°C° 0 mm 0 mps 710 mmHg 92%
    02:00 -28°C° 0 mm 0 mps 710 mmHg 92%
    03:00 -28°C° 0 mm 0 mps 710 mmHg 92%
    04:00 -28°C° 0 mm 0 mps 710 mmHg 92%
    05:00 -28°C° 0 mm 0 mps 710 mmHg 92%
    06:00 -28°C° 0 mm 0 mps 710 mmHg 92%
    07:00 -28°C° 0 mm 0 mps 710 mmHg 91%
    08:00 -28°C° 0 mm 0 mps 711 mmHg 91%
    09:00 -27°C° 0 mm 0 mps 711 mmHg 89%
    10:00 -25°C° 0 mm 0 mps 712 mmHg 86%
    11:00 -23°C° 0 mm 0 mps 712 mmHg 84%
    12:00 -23°C° 0 mm 0 mps 712 mmHg 84%
    13:00 -22°C° 0 mm 0 mps 712 mmHg 85%
    14:00 -22°C° 0 mm 1 mps 712 mmHg 85%
    15:00 -23°C° 0 mm 1 mps 712 mmHg 87%
    16:00 -25°C° 0 mm 1 mps 712 mmHg 89%
    17:00 -27°C° 0 mm 1 mps 712 mmHg 91%
    18:00 -27°C° 0 mm 1 mps 713 mmHg 91%
    19:00 -27°C° 0 mm 1 mps 713 mmHg 91%
    20:00 -28°C° 0 mm 1 mps 714 mmHg 91%
    21:00 -28°C° 0 mm 1 mps 714 mmHg 91%
    22:00 -28°C° 0 mm 1 mps 714 mmHg 91%
    23:00 -27°C° 0 mm 1 mps 714 mmHg 91%

    Day after tomorrow, 13 December, Thursday

    Time Temperature Precipitation Wind Pressure Humidity
    00:00 -27°C° 0 mm 1 mps 714 mmHg 91%
    01:00 -27°C° 0 mm 1 mps 714 mmHg 91%
    02:00 -27°C° 0 mm 1 mps 715 mmHg 91%
    03:00 -27°C° 0 mm 1 mps 715 mmHg 91%
    04:00 -27°C° 0 mm 1 mps 715 mmHg 92%
    05:00 -27°C° 0 mm 1 mps 715 mmHg 92%
    06:00 -28°C° 0 mm 1 mps 715 mmHg 92%
    07:00 -28°C° 0 mm 1 mps 715 mmHg 92%
    08:00 -28°C° 0 mm 1 mps 715 mmHg 92%
    09:00 -25°C° 0 mm 1 mps 715 mmHg 90%
    10:00 -23°C° 0 mm 1 mps 715 mmHg 88%
    11:00 -21°C° 0 mm 1 mps 715 mmHg 86%
    12:00 -21°C° 0 mm 1 mps 715 mmHg 87%
    13:00 -20°C° 0 mm 1 mps 715 mmHg 87%
    14:00 -19°C° 0 mm 1 mps 714 mmHg 87%
    15:00 -21°C° 0 mm 1 mps 714 mmHg 89%
    16:00 -23°C° 0 mm 1 mps 714 mmHg 90%
    17:00 -24°C° 0 mm 1 mps 714 mmHg 92%
    18:00 -24°C° 0 mm 1 mps 713 mmHg 91%
    19:00 -25°C° 0 mm 1 mps 713 mmHg 91%
    20:00 -25°C° 0 mm 1 mps 713 mmHg 90%
    21:00 -25°C° 0 mm 1 mps 713 mmHg 90%
    22:00 -25°C° 0 mm 1 mps 713 mmHg 90%
    23:00 -25°C° 0 mm 1 mps 713 mmHg 90%

    14 December, Friday

    Time Temperature Precipitation Wind Pressure Humidity
    00:00 -25°C° 0 mm 1 mps 712 mmHg 90%
    01:00 -25°C° 0 mm 1 mps 712 mmHg 90%
    02:00 -25°C° 0 mm 1 mps 712 mmHg 90%
    03:00 -25°C° 0 mm 1 mps 711 mmHg 90%
    04:00 -25°C° 0 mm 1 mps 711 mmHg 90%
    05:00 -25°C° 0 mm 1 mps 711 mmHg 90%
    06:00 -25°C° 0 mm 1 mps 711 mmHg 90%
    07:00 -27°C° 0 mm 1 mps 711 mmHg 90%
    08:00 -27°C° 0 mm 1 mps 711 mmHg 90%
    09:00 -24°C° 0 mm 1 mps 711 mmHg 88%
    10:00 -22°C° 0 mm 1 mps 710 mmHg 86%
    11:00 -20°C° 0 mm 1 mps 710 mmHg 84%
    12:00 -20°C° 0 mm 1 mps 710 mmHg 85%
    13:00 -19°C° 0 mm 1 mps 709 mmHg 86%
    14:00 -19°C° 0 mm 1 mps 709 mmHg 87%
    15:00 -20°C° 0 mm 1 mps 708 mmHg 89%
    16:00 -21°C° 0 mm 1 mps 708 mmHg 91%
    17:00 -23°C° 0 mm 1 mps 708 mmHg 93%
    18:00 -23°C° 0 mm 1 mps 708 mmHg 93%
    19:00 -23°C° 0 mm 0 mps 708 mmHg 93%
    20:00 -23°C° 0 mm 0 mps 707 mmHg 93%
    21:00 -23°C° 0 mm 0 mps 707 mmHg 93%
    22:00 -23°C° 0 mm 0 mps 707 mmHg 94%
    23:00 -23°C° 0 mm 0 mps 707 mmHg 94%

    15 December, Saturday

    Time Temperature Precipitation Wind Pressure Humidity
    00:00 -23°C° 0 mm 0 mps 706 mmHg 95%
    01:00 -23°C° 0 mm 0 mps 706 mmHg 95%
    02:00 -23°C° 0 mm 0 mps 705 mmHg 96%
    03:00 -23°C° 0 mm 0 mps 705 mmHg 96%
    04:00 -23°C° 0 mm 0 mps 704 mmHg 97%
    05:00 -23°C° 0 mm 0 mps 704 mmHg 97%
    06:00 -23°C° 0 mm 0 mps 704 mmHg 97%
    07:00 -23°C° 0 mm 0 mps 704 mmHg 97%
    08:00 -23°C° 0 mm 0 mps 704 mmHg 97%
    09:00 -22°C° 0 mm 0 mps 704 mmHg 95%
    10:00 -21°C° 0 mm 0 mps 704 mmHg 93%
    11:00 -20°C° 0 mm 0 mps 703 mmHg 91%
    12:00 -20°C° 0 mm 0 mps 703 mmHg 91%
    13:00 -20°C° 0 mm 0 mps 703 mmHg 90%
    14:00 -19°C° 0 mm 0 mps 702 mmHg 90%
    15:00 -21°C° 0 mm 0 mps 702 mmHg 92%
    16:00 -22°C° 0 mm 0 mps 702 mmHg 94%
    17:00 -23°C° 0 mm 0 mps 702 mmHg 96%
    18:00 -24°C° 0 mm 0 mps 702 mmHg 96%
    19:00 -24°C° 0 mm 0 mps 702 mmHg 96%
    20:00 -24°C° 0 mm 0 mps 702 mmHg 96%
    21:00 -25°C° 0 mm 0 mps 702 mmHg 96%
    22:00 -25°C° 0 mm 0 mps 702 mmHg 97%
    23:00 -25°C° 0 mm 0 mps 702 mmHg 97%

    16 December, Sunday

    Time Temperature Precipitation Wind Pressure Humidity
    00:00 -25°C° 0 mm 0 mps 702 mmHg 97%
    01:00 -25°C° 0 mm 0 mps 702 mmHg 97%
    02:00 -25°C° 0 mm 0 mps 701 mmHg 97%
    03:00 -25°C° 0 mm 0 mps 701 mmHg 97%
    04:00 -25°C° 0 mm 0 mps 701 mmHg 97%
    05:00 -25°C° 0 mm 0 mps 701 mmHg 96%
    06:00 -25°C° 0 mm 0 mps 701 mmHg 97%
    07:00 -25°C° 0 mm 0 mps 701 mmHg 97%
    08:00 -25°C° 0 mm 0 mps 701 mmHg 97%
    09:00 -23°C° 0 mm 0 mps 701 mmHg 94%
    10:00 -22°C° 0 mm 0 mps 701 mmHg 92%
    11:00 -20°C° 0 mm 0 mps 701 mmHg 90%
    12:00 -20°C° 0 mm 0 mps 701 mmHg 90%
    13:00 -19°C° 0 mm 0 mps 701 mmHg 90%
    14:00 -19°C° 0 mm 0 mps 700 mmHg 90%
    15:00 -21°C° 0 mm 0 mps 700 mmHg 92%
    16:00 -22°C° 0 mm 0 mps 700 mmHg 94%
    17:00 -24°C° 0 mm 1 mps 700 mmHg 96%
    18:00 -24°C° 0 mm 1 mps 700 mmHg 97%
    19:00 -24°C° 0 mm 1 mps 700 mmHg 97%
    20:00 -25°C° 0 mm 1 mps 699 mmHg 97%
    21:00 -25°C° 0 mm 1 mps 699 mmHg 97%
    22:00 -25°C° 0 mm 1 mps 699 mmHg 97%
    23:00 -25°C° 0 mm 1 mps 698 mmHg 97%
    Show more